Peru, IN

12:55 AM EDT on June 27, 2017 (GMT -0400)
Grissom Air Reserve Base

Weather History for KGUS - April, 2013

Change the Weather History Date:

Thursday, April 11, 2013

  Actual Average Record
Temperature  
Mean Temperature 54 °F -  
Max Temperature 63 °F 59 °F 80 °F (2001)
Min Temperature 46 °F 40 °F 26 °F (2012)
Degree Days  
Heating Degree Days 11    
Growing Degree Days 4 (Base 50)    
Moisture  
Dew Point 53 °F    
Average Humidity 100    
Maximum Humidity 100    
Minimum Humidity 100    
Precipitation  
Precipitation 0.55 in - - ()
Sea Level Pressure  
Sea Level Pressure 29.67 in    
Wind  
Wind Speed 10 mph (NE)    
Max Wind Speed 20 mph    
Max Gust Speed 37 mph    
Visibility 7 miles    
Events Rain , Thunderstorm    
Averages and records for this station are not official NWS values.
T = Trace of Precipitation, MM = Missing Value Source: NWS Daily Summary

Daily Weather History Graph

Daily Weather History Graph

Search for Another Location

Airport or City:

Trip Planner

Search our weather history database for the weather conditions in past years. The results will help you decide how hot, cold, wet, or windy it might be!

Date:

Astronomy

Apr. 11, 2013 Rise Set
Actual Time 7:11 AM EDT 8:20 PM EDT
Civil Twilight 6:43 AM EDT 8:48 PM EDT
Nautical Twilight 6:10 AM EDT 9:21 PM EDT
Astronomical Twilight 5:35 AM EDT 9:57 PM EDT
Moon 7:42 AM EDT (4/11) 9:54 PM EDT (4/11)
Length of Visible Light 14h 04m
Length of Day
13h 08m
New Moon, 2% of the Moon is Illuminated
Apr 11
New Moon
Apr 18
First Quarter
Apr 25
Full
May 2
Last Quarter
May 9
New

Hourly Weather History & Observations

Time (EDT) Temp. Windchill Dew Point Humidity Pressure Visibility Wind Dir Wind Speed Gust Speed Precip Events Conditions
12:17 AM 51.8 °F - 51.8 °F 100% 29.76 in 10.0 mi East 10.4 mph - N/A   Overcast
12:48 AM 51.8 °F - 51.8 °F 100% 29.75 in 10.0 mi East 10.4 mph - N/A   Overcast
12:55 AM 51.1 °F - 51.1 °F 100% 29.74 in 10.0 mi East 12.7 mph - 0.00 in   Overcast
1:10 AM 51.8 °F - 51.8 °F 100% 29.74 in 9.0 mi East 6.9 mph 20.7 mph N/A Rain Light Rain
1:17 AM 51.8 °F - 51.8 °F 100% 29.73 in 8.0 mi East 9.2 mph - N/A Rain Light Rain
1:24 AM 51.8 °F - 51.8 °F 100% 29.73 in 9.0 mi East 10.4 mph - N/A   Overcast
1:55 AM 51.1 °F - 51.1 °F 100% 29.71 in 9.0 mi East 12.7 mph - 0.01 in Thunderstorm Thunderstorm
2:01 AM 51.8 °F - 51.8 °F 100% 29.72 in 9.0 mi ENE 15.0 mph - N/A Thunderstorm Thunderstorm
2:13 AM 51.8 °F - 51.8 °F 100% 29.79 in 4.0 mi NW 9.2 mph 36.8 mph N/A Rain , Thunderstorm Heavy Thunderstorms and Rain
2:16 AM 51.8 °F - 51.8 °F 100% 29.75 in 2.5 mi NE 9.2 mph 36.8 mph N/A Rain , Thunderstorm Heavy Thunderstorms and Rain
2:18 AM 51.8 °F - 51.8 °F 100% 29.74 in 2.0 mi ENE 11.5 mph 36.8 mph N/A Rain , Thunderstorm Heavy Thunderstorms and Rain
2:19 AM 51.8 °F - 51.8 °F 100% 29.74 in 2.0 mi East 10.4 mph 36.8 mph N/A Rain , Thunderstorm Heavy Thunderstorms and Rain
2:22 AM 51.8 °F - 51.8 °F 100% 29.76 in 2.5 mi East 9.2 mph - N/A Rain , Thunderstorm Heavy Thunderstorms and Rain
2:24 AM 51.8 °F - 51.8 °F 100% 29.77 in 3.0 mi East 9.2 mph - N/A Rain , Thunderstorm Light Thunderstorms and Rain
2:28 AM 51.8 °F - 51.8 °F 100% 29.78 in 5.0 mi North 12.7 mph - N/A Rain , Thunderstorm Light Thunderstorms and Rain
2:29 AM 51.8 °F - 51.8 °F 100% 29.78 in 6.0 mi North 11.5 mph - N/A Rain , Thunderstorm Rain
2:31 AM 51.8 °F - 51.8 °F 100% 29.78 in 7.0 mi North 12.7 mph - N/A Rain , Thunderstorm Rain
2:35 AM 51.8 °F - 51.8 °F 100% 29.79 in 9.0 mi North 9.2 mph - N/A Rain Light Rain
2:38 AM 51.8 °F - 51.8 °F 100% 29.78 in 9.0 mi North 12.7 mph - N/A Rain Light Rain
2:40 AM 51.8 °F - 51.8 °F 100% 29.78 in 8.0 mi NNE 11.5 mph - N/A Rain Light Rain
2:42 AM 50.0 °F - 50.0 °F 100% 29.77 in 7.0 mi NNE 11.5 mph - N/A Rain Rain
2:44 AM 50.0 °F - 50.0 °F 100% 29.77 in 7.0 mi NNE 13.8 mph - N/A Rain Rain
2:47 AM 50.0 °F - 50.0 °F 100% 29.76 in 6.0 mi NE 13.8 mph - N/A Rain Rain
2:54 AM 50.0 °F - 50.0 °F 100% 29.76 in 8.0 mi NE 13.8 mph - N/A Rain Rain
2:57 AM 50.0 °F - 50.0 °F 100% 29.76 in 9.0 mi NE 15.0 mph - N/A Rain Rain
3:04 AM 50.0 °F - 50.0 °F 100% 29.78 in 10.0 mi NE 11.5 mph - N/A Rain Light Rain
3:08 AM 50.0 °F - 50.0 °F 100% 29.77 in 9.0 mi NE 11.5 mph - N/A Rain Rain
3:18 AM 48.2 °F - 48.2 °F 100% 29.78 in 9.0 mi NE 13.8 mph - N/A Rain Light Rain
3:27 AM 48.2 °F - 48.2 °F 100% 29.79 in 6.0 mi NE 9.2 mph - N/A Rain Rain
3:34 AM 48.2 °F - 48.2 °F 100% 29.80 in 7.0 mi NE 9.2 mph - N/A Rain Rain
3:55 AM 47.1 °F - 47.1 °F 100% 29.78 in 7.0 mi NE 12.7 mph - 0.10 in Rain Rain
4:07 AM 46.4 °F 40.4 °F 46.4 °F 100% 29.75 in 7.0 mi NE 13.8 mph - N/A Rain Rain
4:35 AM 46.4 °F 39.8 °F 46.4 °F 100% 29.71 in 6.0 mi East 16.1 mph - N/A Rain Light Rain
4:38 AM 46.4 °F 41.1 °F 46.4 °F 100% 29.73 in 6.0 mi East 11.5 mph 23.0 mph N/A Rain Light Rain
4:47 AM 46.4 °F 40.7 °F 46.4 °F 100% 29.75 in 10.0 mi East 12.7 mph - N/A   Mostly Cloudy
4:55 AM 47.7 °F - 47.7 °F 100% 29.74 in 10.0 mi East 11.5 mph - 0.06 in   Mostly Cloudy
5:05 AM 48.2 °F - 48.2 °F 100% 29.75 in 10.0 mi East 9.2 mph - N/A   Mostly Cloudy
5:23 AM 48.2 °F - 48.2 °F 100% 29.73 in 10.0 mi NE 8.1 mph - N/A   Overcast
5:30 AM 50.0 °F - 50.0 °F 100% 29.73 in 9.0 mi ENE 6.9 mph - N/A   Overcast
5:55 AM 50.5 °F - 50.5 °F 100% 29.74 in 9.0 mi East 12.7 mph - N/A   Overcast
6:00 AM 50.0 °F - 50.0 °F 100% 29.75 in 9.0 mi ESE 16.1 mph - N/A   Overcast
6:19 AM 50.0 °F - 50.0 °F 100% 29.73 in 9.0 mi East 12.7 mph - N/A   Overcast
6:55 AM 50.0 °F - 50.0 °F 100% 29.70 in 2.0 mi East 12.7 mph - N/A   Overcast
7:55 AM 50.2 °F - 50.2 °F 100% 29.72 in 5.0 mi East 11.5 mph - N/A   Overcast
9:55 AM 50.7 °F - 50.7 °F 100% 29.69 in 7.0 mi East 15.0 mph - N/A   Overcast
10:31 AM 51.8 °F - 51.8 °F 100% 29.67 in 7.0 mi East 13.8 mph - N/A   Overcast
10:55 AM 52.7 °F - 52.7 °F 100% 29.68 in 7.0 mi East 12.7 mph - N/A   Overcast
11:23 AM 53.6 °F - 53.6 °F 100% 29.68 in 7.0 mi East 12.7 mph - N/A   Overcast
11:55 AM 53.8 °F - 53.8 °F 100% 29.68 in 10.0 mi East 11.5 mph - N/A   Overcast
12:06 PM 53.6 °F - 53.6 °F 100% 29.68 in 6.0 mi East 11.5 mph - N/A Rain Light Rain
12:37 PM 55.4 °F - 55.4 °F 100% 29.67 in 10.0 mi East 8.1 mph - N/A   Overcast
12:55 PM 55.2 °F - 55.2 °F 100% 29.68 in 10.0 mi East 9.2 mph - 0.01 in   Overcast
1:12 PM 55.4 °F - 55.4 °F 100% 29.67 in 5.0 mi East 11.5 mph - N/A   Light Drizzle
1:22 PM 55.4 °F - 55.4 °F 100% 29.66 in 6.0 mi East 9.2 mph - N/A   Overcast
1:40 PM 55.4 °F - 55.4 °F 100% 29.65 in 6.0 mi East 9.2 mph - N/A Rain Light Rain
1:55 PM 56.8 °F - 56.8 °F 100% 29.64 in 5.0 mi East 9.2 mph - 0.01 in   Overcast
2:06 PM 57.2 °F - 57.2 °F 100% 29.64 in 8.0 mi SE 9.2 mph - N/A Rain Light Rain
2:42 PM 57.2 °F - 57.2 °F 100% 29.63 in 7.0 mi Variable 5.8 mph - N/A Rain Light Rain
2:55 PM 58.1 °F - 58.1 °F 100% 29.63 in 7.0 mi East 8.1 mph - 0.00 in Rain Light Rain
3:11 PM 59.0 °F - 59.0 °F 100% 29.63 in 7.0 mi Calm Calm - N/A Rain Light Rain
3:36 PM 59.0 °F - 59.0 °F 100% 29.62 in 9.0 mi Calm Calm - N/A Rain Light Rain
3:38 PM 59.0 °F - 59.0 °F 100% 29.62 in 8.0 mi Calm Calm - N/A   Light Drizzle
3:55 PM 62.6 °F - 62.6 °F 100% 29.62 in 8.0 mi South 10.4 mph - 0.05 in Rain Light Rain
4:05 PM 62.6 °F - 62.6 °F 100% 29.61 in 10.0 mi South 10.4 mph - N/A Rain Light Rain
4:21 PM 62.6 °F - 62.6 °F 100% 29.60 in 10.0 mi South 11.5 mph - N/A Rain Light Rain
4:26 PM 62.6 °F - 62.6 °F 100% 29.60 in 10.0 mi SSE 12.7 mph - N/A Rain Light Rain
4:37 PM 62.6 °F - 62.6 °F 100% 29.60 in 10.0 mi South 11.5 mph - N/A Rain Light Rain
4:50 PM 62.6 °F - 62.6 °F 100% 29.60 in 10.0 mi South 15.0 mph - N/A Rain Light Rain
4:53 PM 62.6 °F - 62.6 °F 100% 29.59 in 10.0 mi South 13.8 mph - N/A Rain Light Rain
4:55 PM 61.7 °F - 61.7 °F 100% 29.60 in 10.0 mi SW 19.6 mph 24.2 mph 0.04 in Rain Light Rain
5:01 PM 60.8 °F - 60.8 °F 100% 29.60 in 10.0 mi SSW 16.1 mph 24.2 mph N/A Rain Light Rain
5:10 PM 60.8 °F - 60.8 °F 100% 29.60 in 10.0 mi SSW 18.4 mph - N/A Rain Light Rain
5:15 PM 60.8 °F - 60.8 °F 100% 29.60 in 10.0 mi SSW 17.3 mph - N/A   Overcast
5:22 PM 60.8 °F - 60.8 °F 100% 29.60 in 10.0 mi SSW 13.8 mph - N/A Rain Light Rain
5:27 PM 60.8 °F - 60.8 °F 100% 29.60 in 10.0 mi SSW 12.7 mph - N/A Rain Light Rain
5:40 PM 60.8 °F - 60.8 °F 100% 29.60 in 10.0 mi SSW 11.5 mph - N/A Rain Light Rain
5:55 PM 60.6 °F - 60.6 °F 100% 29.60 in 8.0 mi SSW 11.5 mph - 0.04 in Rain Light Rain
6:38 PM 57.2 °F - 57.2 °F 100% 29.56 in 7.0 mi North 4.6 mph - N/A Rain Light Rain
6:45 PM 57.2 °F - 57.2 °F 100% 29.57 in 7.0 mi NW 6.9 mph - N/A Rain Light Rain
6:47 PM 57.2 °F - 57.2 °F 100% 29.58 in 7.0 mi NW 6.9 mph - N/A Rain Light Rain
6:55 PM 56.8 °F - 56.8 °F 100% 29.58 in 10.0 mi WNW 11.5 mph - 0.05 in Rain Light Rain
7:12 PM 55.4 °F - 55.4 °F 100% 29.60 in 10.0 mi West 9.2 mph - N/A Rain Light Rain
7:24 PM 55.4 °F - 55.4 °F 100% 29.59 in 10.0 mi NW 10.4 mph - N/A   Overcast
7:35 PM 55.4 °F - 55.4 °F 100% 29.59 in 10.0 mi WNW 13.8 mph - N/A   Light Drizzle
7:46 PM 55.4 °F - 55.4 °F 100% 29.60 in 4.0 mi WNW 10.4 mph - N/A Rain Light Rain
7:51 PM 53.6 °F - 53.6 °F 100% 29.60 in 1.5 mi WNW 9.2 mph - N/A Rain Rain
7:55 PM 53.6 °F - 53.6 °F 100% 29.67 in 2.5 mi NW 10.4 mph - N/A Rain Heavy Rain
8:16 PM 53.6 °F - 53.6 °F 100% 29.59 in 3.0 mi NW 9.2 mph - N/A Rain Rain
8:19 PM 53.6 °F - 53.6 °F 100% 29.58 in 5.0 mi NW 9.2 mph - N/A Rain Light Rain
8:35 PM 53.6 °F - 53.6 °F 100% 29.57 in 7.0 mi NNW 6.9 mph - N/A Rain Light Rain
8:55 PM 52.9 °F - 52.9 °F 100% 29.58 in 5.0 mi North 4.6 mph - 0.11 in   Light Drizzle
9:55 PM 49.6 °F - 49.6 °F 100% 29.58 in 7.0 mi NE 4.6 mph - 0.02 in   Light Drizzle
10:09 PM 50.0 °F - 50.0 °F 100% 29.58 in 10.0 mi NE 4.6 mph - N/A   Overcast
10:30 PM 48.2 °F - 48.2 °F 100% 29.57 in 8.0 mi NE 5.8 mph - N/A   Light Drizzle
10:51 PM 48.2 °F - 48.2 °F 100% 29.57 in 4.0 mi NE 4.6 mph - N/A Rain Light Rain
10:55 PM 48.0 °F - 48.0 °F 100% 29.57 in 4.0 mi NE 4.6 mph - 0.01 in Rain Light Rain
10:56 PM 48.2 °F - 48.2 °F 100% 29.57 in 4.0 mi NE 4.6 mph - N/A Rain Light Rain
11:04 PM 48.2 °F - 48.2 °F 100% 29.57 in 4.0 mi NNE 4.6 mph - N/A   Light Drizzle
11:05 PM 48.2 °F - 48.2 °F 100% 29.58 in 5.0 mi NNE 4.6 mph - N/A   Light Drizzle
11:09 PM 48.2 °F - 48.2 °F 100% 29.58 in 4.0 mi NE 3.5 mph - N/A   Drizzle
11:14 PM 48.2 °F - 48.2 °F 100% 29.58 in 4.0 mi NE 4.6 mph - N/A   Drizzle
11:24 PM 46.4 °F 44.3 °F 46.4 °F 100% 29.59 in 4.0 mi North 4.6 mph - N/A Rain Light Rain
11:27 PM 46.4 °F 45.2 °F 46.4 °F 100% 29.59 in 5.0 mi North 3.5 mph - N/A Rain Light Rain
11:40 PM 46.4 °F - 46.4 °F 100% 29.59 in 4.0 mi Calm Calm - N/A Rain Light Rain
11:45 PM 46.4 °F 45.2 °F 46.4 °F 100% 29.59 in 4.0 mi NNW 3.5 mph - N/A Rain Light Rain
11:50 PM 46.4 °F 45.2 °F 46.4 °F 100% 29.59 in 4.0 mi NNW 3.5 mph - N/A Rain Light Rain
11:51 PM 46.4 °F 44.3 °F 46.4 °F 100% 29.59 in 5.0 mi NNW 4.6 mph - N/A Rain Light Rain
11:55 PM 47.3 °F - 47.3 °F 100% 29.59 in 5.0 mi NW 3.5 mph - 0.04 in Rain Light Rain